Retour au catalogue

CZ-6A DEB

ActifPO
NORAD 60983·DEBRIS·🇨🇳 China

Lancé Aug 6, 2024 depuis Taiyuan Satellite Launch Center

Loading…

Prochains Passages (prochaines 24 heures)

TLE

FraisSource: Space-Track

Époque: Sep 14, 2026, 22:03 UTC

1 60983U 24140MJ  26257.91883390  .00000860  00000-0  24906-3 0  9998
2 60983  88.7830 241.1519 0054567  17.7066 342.6022 14.42760202108678

Suivez CZ-6A DEB en temps réel avec AllMySat

Download on the App Store